******************************************************************************* JPL/HORIZONS Bowell (C/1980 E1) 2025-Dec-12 18:02:43 Rec #:90002101 (+COV) Soln.date: 2021-Apr-15_23:29:29 # obs: 187 (1980-1986) IAU76/J2000 helio. ecliptic osc. elements (au, days, deg., period=Julian yrs): EPOCH= 2444972.5 ! 1982-Jan-03.0000000 (TDB) RMSW= n.a. EC= 1.057732866190401 QR= 3.363939864961739 TP= 2445040.7868834003 OM= 114.557492007681 W= 135.0832940391088 IN= 1.661741742960259 A= -58.26732824709546 MA= -.1513225701277234 ADIST= 9.999999E99 PER= 9.999999E99 N= .002215983 ANGMOM= .045258489 DAN= 27.57987 DDN= 3.9577 L= 249.6528365 B= 1.1732369 MOID= 2.3505199 TP= 1982-Mar-12.2868834003 Comet physical (GM= km^3/s^2; RAD= km): GM= n.a. RAD= n.a. M1= 5.8 M2= n.a. k1= 7.25 k2= n.a. PHCOF= n.a. COMET comments 1: soln ref.= JPL#6, data arc: 1980-02-11 to 1986-12-30 2: k1=7.25; ******************************************************************************* ******************************************************************************* Ephemeris / WWW_USER Fri Dec 12 18:02:43 2025 Pasadena, USA / Horizons ******************************************************************************* Target body name: Bowell (C/1980 E1) {source: JPL#6} Center body name: Earth (399) {source: DE441} Center-site name: GEOCENTRIC ******************************************************************************* Start time : A.D. 1682-Mar-12 07:28:00.0000 UT Stop time : A.D. 2500-Jan-01 00:00:00.0000 UT Step-size : 300 calendar years ******************************************************************************* Target pole/equ : undefined Target radii : undefined Center geodetic : 0.0, 0.0, -6378.137 {E-lon(deg),Lat(deg),Alt(km)} Center cylindric: 0.0, 0.0, 0.0 {E-lon(deg),Dxy(km),Dz(km)} Center pole/equ : ITRF93 {East-longitude positive} Center radii : 6378.137, 6378.137, 6356.752 km {Equator_a, b, pole_c} Target primary : Sun Vis. interferer : MOON (R_eq= 1737.400) km {source: DE441} Rel. light bend : Sun {source: DE441} Rel. lght bnd GM: 1.3271E+11 km^3/s^2 Small-body perts: Yes {source: SB441-N16} Atmos refraction: NO (AIRLESS) RA format : HMS Time format : CAL Calendar mode : Mixed Julian/Gregorian EOP file : eop.251212.p260310 EOP coverage : DATA-BASED 1962-JAN-20 TO 2025-DEC-12. PREDICTS-> 2026-MAR-09 Units conversion: 1 au= 149597870.700 km, c= 299792.458 km/s, 1 day= 86400.0 s Table cut-offs 1: Elevation (-90.0deg=NO ),Airmass (>38.000=NO), Daylight (NO ) Table cut-offs 2: Solar elongation ( 0.0,180.0=NO ),Local Hour Angle( 0.0=NO ) Table cut-offs 3: RA/DEC angular rate ( 0.0=NO ) ******************************************************************************* Initial IAU76/J2000 heliocentric ecliptic osculating elements (au, days, deg.): EPOCH= 2444972.5 ! 1982-Jan-03.0000000 (TDB) RMSW= n.a. EC= 1.057732866190401 QR= 3.363939864961739 TP= 2445040.7868834003 OM= 114.557492007681 W= 135.0832940391088 IN= 1.661741742960259 Equivalent ICRF heliocentric cartesian coordinates (au, au/d): X=-2.004473392124170E+00 Y=-2.584125203604185E+00 Z=-1.026185222701464E+00 VX= 1.178274458095755E-02 VY=-5.625054774058823E-03 VZ=-2.695717907192531E-03 Comet physical (GM= km^3/s^2; RAD= km): GM= n.a. RAD= n.a. M1= 5.8 M2= n.a. k1= 7.25 k2= n.a. PHCOF= n.a. ************************************************************************************************** Date__(UT)__HR:MN r rdot VmagSn VmagOb RNG_3sigma RNGRT_3sig ************************************************************************************************** $$SOE 1682-Mar-12 07:28 248.7740315773 -2.6571811 2.6758062 27.2671126 6780160.69 0.0009779 1982-Mar-12 07:28 3.363943977918 0.0000058 23.2926610 34.2186895 1589.7117 0.0000686 2282-Mar-12 07:28 337.1940650144 4.4229540 4.4288999 34.0577402 5179732.37 0.0006658 $$EOE ************************************************************************************************** Column meaning: TIME Times PRIOR to 1962 are UT1, a mean-solar time closely related to the prior but now-deprecated GMT. Times AFTER 1962 are in UTC, the current civil or "wall-clock" time-scale. UTC is kept within 0.9 seconds of UT1 using integer leap-seconds for 1972 and later years. Conversion from the internal Barycentric Dynamical Time (TDB) of solar system dynamics to the non-uniform civil UT time-scale requested for output has not been determined for UTC times after the next July or January 1st. Therefore, the last known leap-second is used as a constant over future intervals. Time tags refer to the UT time-scale conversion from TDB on Earth regardless of observer location within the solar system, although clock rates may differ due to the local gravity field and no analog to "UT" may be defined for that location. Any 'b' symbol in the 1st-column denotes a B.C. date. First-column blank (" ") denotes an A.D. date. CALENDAR SYSTEM Mixed calendar mode was active such that calendar dates after AD 1582-Oct-15 (if any) are in the modern Gregorian system. Dates prior to 1582-Oct-5 (if any) are in the Julian calendar system, which is automatically extended for dates prior to its adoption on 45-Jan-1 BC. The Julian calendar is useful for matching historical dates. The Gregorian calendar more accurately corresponds to the Earth's orbital motion and seasons. A "Gregorian-only" calendar mode is available if such physical events are the primary interest. NOTE: "n.a." in output means quantity "not available" at the print-time. STATISTICAL UNCERTAINTIES Output includes formal +/- 3 standard-deviation statistical orbit uncertainty quantities. There is a 99.7% (1-D) or 98.9% (2-D) chance the actual value is within given bounds. These statistical calculations assume observational data errors are random. If there are systematic biases (such as timing, reduction or star-catalog errors), results can be optimistic. Because the epoch covariance is mapped using linearized variational partial derivatives, results can also be optimistic for times far from the solution epoch, particularly for objects having close planetary encounters. 'r rdot' = The Sun's apparent range ("r", light-time aberrated) and range-rate ("rdot") relative to the target center, as seen by the observer. A positive "rdot" means the target center was moving away from the Sun, negative means moving toward the Sun. Units: AU and KM/S 'VmagSn VmagOb' = Magnitude of target centers' velocity with respect to the Sun ("VmagSn") and the observer ("VmagOb") at the time light left the target center to be observed (print time minus down-leg light-time). These are absolute values of the velocity vectors (total speeds) and do NOT indicate direction of motion. Units: KM/S 'RNG_3sigma RNGRT_3sig' = Range and range rate (radial velocity) formal 3-standard-deviation uncertainties. Units: KM, KM/S Computations by ... Solar System Dynamics Group, Horizons On-Line Ephemeris System 4800 Oak Grove Drive, Jet Propulsion Laboratory Pasadena, CA 91109 USA General site: https://ssd.jpl.nasa.gov/ Mailing list: https://ssd.jpl.nasa.gov/email_list.html System news : https://ssd.jpl.nasa.gov/horizons/news.html User Guide : https://ssd.jpl.nasa.gov/horizons/manual.html Connect : browser https://ssd.jpl.nasa.gov/horizons/app.html#/x API https://ssd-api.jpl.nasa.gov/doc/horizons.html command-line telnet ssd.jpl.nasa.gov 6775 e-mail/batch https://ssd.jpl.nasa.gov/ftp/ssd/horizons_batch.txt scripts https://ssd.jpl.nasa.gov/ftp/ssd/SCRIPTS Author : Jon.D.Giorgini@jpl.nasa.gov ************************************************************************************************** !$$SOF COMMAND = '1980 E1' QUANTITIES = '19,22,39' START_TIME = '1682-03-12 07:28' STEP_SIZE = '300 years' STOP_TIME = '2500-01-01'